GEO-KOMPSAT-2A

Last updated on Wed Sep 09 2026 00:02:41 GMT+0000 (Coordinated Universal Time)

1 43823U 18100A 26251.25666567 -.00000365 00000+0 00000+0 0 9992 2 43823 0.0341 45.7121 0001658 86.1629 76.1051 1.00270554 28466
UTC large
Height (km)
Speed (km/s)
/
Latitude / Longitude
Inclination (degrees)
Orbital Period (minutes)
Azimuth
Elevation
Range (km)
Doppler Factor

Next 0 passes for location: London (51.5072 / 0.1276)

No passes found over London.
GEO-KOMPSAT-2A